Location: Advent Pentecost Church
(32.7757°N, 96.7408°W)
Time: 13:42:26
(UTC+00:00)

N. Korean satellite - Pass Details

Date: 26 October 2021
Orbit: 447 x 495 km, 97.3° (Epoch: 03 December)

Event Time Altitude Azimuth Distance (km) Brightness Sun altitude
Rises 10:55:58 0° 28° (NNE) 2,577 10.6 -22.4°
Reaches altitude 10° 10:58:25 10° 44° (NE) 1,684 9.8 -21.9°
Maximum altitude 11:01:16 22° 96° (E) 1,113 9.2 -21.3°
Drops below altitude 10° 11:04:05 10° 148° (SSE) 1,655 9.7 -20.7°
Sets 11:06:28 0° 164° (SSE) 2,520 10.4 -20.2°
